TimeMDT,TemperatureF,Dew PointF,Humidity,Sea Level PressureIn,VisibilityMPH,Wind Direction,Wind SpeedMPH,Gust SpeedMPH,PrecipitationIn,Events,Conditions,WindDirDegrees,DateUTC
12:15 AM,33.8,32.0,93,29.90,10.0,SE,3.5,-,N/A,,Overcast,130,2013-03-23 06:15:00
12:35 AM,33.8,32.0,93,29.91,7.0,Calm,Calm,-,N/A,Snow,Light Snow,0,2013-03-23 06:35:00
12:55 AM,33.8,32.0,93,29.92,3.0,Calm,Calm,-,N/A,Snow,Light Snow,0,2013-03-23 06:55:00
1:15 AM,33.4,32.0,94,29.92,1.2,NNW,3.5,-,0.01,Snow,Light Snow,330,2013-03-23 07:15:00
1:35 AM,33.3,32.0,95,29.92,1.0,Calm,Calm,-,0.01,Snow,Snow,0,2013-03-23 07:35:00
2:15 AM,32.0,31.1,96,29.92,1.0,ENE,8.1,-,N/A,Snow,Light Snow,70,2013-03-23 08:15:00
2:35 AM,31.6,30.4,95,29.93,1.5,ENE,10.4,-,0.01,Snow,Light Snow,70,2013-03-23 08:35:00
2:55 AM,31.1,29.7,94,29.94,1.2,ENE,12.7,-,0.01,Snow,Light Snow,70,2013-03-23 08:55:00
3:15 AM,30.6,28.9,94,29.94,2.0,ENE,10.4,-,N/A,Snow,Light Snow,60,2013-03-23 09:15:00
3:35 AM,30.2,28.2,92,29.94,3.0,NE,13.8,-,N/A,Snow,Light Snow,50,2013-03-23 09:35:00
3:55 AM,29.5,27.3,92,29.94,1.8,NE,15.0,-,N/A,Snow,Light Snow,40,2013-03-23 09:55:00
4:15 AM,28.9,26.4,90,29.94,2.0,NE,18.4,-,N/A,Snow,Light Snow,40,2013-03-23 10:15:00
4:35 AM,28.4,26.1,91,29.94,2.0,NE,13.8,-,N/A,Snow,Light Snow,40,2013-03-23 10:35:00
4:55 AM,28.4,25.7,90,29.93,3.0,NE,16.1,-,N/A,Snow,Light Snow,50,2013-03-23 10:55:00
5:15 AM,28.4,25.7,90,29.95,5.0,NE,13.8,-,N/A,Snow,Light Snow,50,2013-03-23 11:15:00
5:35 AM,28.4,25.7,90,29.96,5.0,NE,11.5,-,N/A,Snow,Light Snow,50,2013-03-23 11:35:00
5:55 AM,28.4,25.5,89,29.97,5.0,NE,16.1,20.7,N/A,Snow,Light Snow,50,2013-03-23 11:55:00
6:15 AM,28.4,25.5,89,29.97,5.0,NE,15.0,-,N/A,,Overcast,50,2013-03-23 12:15:00
6:35 AM,28.4,25.5,89,29.98,3.0,NE,17.3,20.7,N/A,Snow,Light Snow,40,2013-03-23 12:35:00
6:55 AM,27.3,24.6,90,30.00,0.5,NE,23.0,28.8,N/A,Snow,Light Snow,40,2013-03-23 12:55:00
7:15 AM,27.1,23.9,88,30.00,1.0,NE,18.4,26.5,N/A,Snow,Light Snow,40,2013-03-23 13:15:00
7:35 AM,25.3,22.6,89,30.02,0.5,NNE,21.9,28.8,N/A,Snow,Light Snow,20,2013-03-23 13:35:00
7:55 AM,24.4,21.4,88,30.02,0.5,NNE,24.2,-,N/A,Snow,Light Snow,20,2013-03-23 13:55:00
8:15 AM,23.7,20.5,87,30.02,0.8,North,24.2,-,N/A,Snow,Light Snow,10,2013-03-23 14:15:00
8:35 AM,22.6,19.4,87,30.03,0.5,NNE,26.5,29.9,N/A,Snow,Light Snow,20,2013-03-23 14:35:00
8:55 AM,22.1,19.2,89,30.03,0.5,NNE,25.3,31.1,N/A,Snow,Snow,20,2013-03-23 14:55:00
9:15 AM,22.1,19.2,89,30.04,0.5,North,26.5,-,N/A,Snow,Snow,10,2013-03-23 15:15:00
9:35 AM,22.1,18.9,87,30.05,0.5,NNE,23.0,26.5,N/A,Snow,Snow,20,2013-03-23 15:35:00
9:55 AM,21.9,18.5,87,30.05,0.2,North,26.5,-,N/A,Snow,Snow,10,2013-03-23 15:55:00
10:15 AM,22.3,18.7,86,30.05,0.5,NNE,24.2,-,N/A,Snow,Light Snow,20,2013-03-23 16:15:00
10:35 AM,22.8,18.5,83,30.05,0.8,NNE,21.9,31.1,N/A,Snow,Light Snow,20,2013-03-23 16:35:00
10:55 AM,23.0,18.5,83,30.06,1.0,North,23.0,-,N/A,Snow,Light Snow,10,2013-03-23 16:55:00
11:15 AM,23.4,18.9,83,30.06,0.8,North,25.3,-,N/A,Snow,Light Snow,10,2013-03-23 17:15:00
11:35 AM,23.7,19.2,83,30.06,1.0,NNE,20.7,29.9,N/A,Snow,Light Snow,20,2013-03-23 17:35:00
11:55 AM,24.3,19.4,82,30.06,1.2,North,24.2,-,N/A,Snow,Light Snow,10,2013-03-23 17:55:00
12:15 PM,24.4,18.7,79,30.07,2.5,North,23.0,-,N/A,,Haze,10,2013-03-23 18:15:00
12:35 PM,24.6,18.5,78,30.07,5.0,North,24.2,27.6,N/A,,Haze,10,2013-03-23 18:35:00
12:55 PM,24.4,18.7,79,30.07,2.0,North,23.0,28.8,N/A,,Haze,10,2013-03-23 18:55:00
1:15 PM,24.4,19.0,80,30.07,2.5,North,25.3,-,N/A,,Haze,10,2013-03-23 19:15:00
1:35 PM,24.8,19.8,81,30.07,1.0,North,25.3,28.8,N/A,Snow,Light Snow,10,2013-03-23 19:35:00
1:55 PM,24.8,19.9,82,30.07,0.8,North,20.7,29.9,N/A,Snow,Light Snow,360,2013-03-23 19:55:00
2:15 PM,25.5,20.8,82,30.07,1.2,North,23.0,-,N/A,Snow,Light Snow,10,2013-03-23 20:15:00
2:35 PM,25.7,20.3,80,30.07,2.5,North,24.2,27.6,N/A,,Haze,360,2013-03-23 20:35:00
2:55 PM,25.5,20.1,80,30.07,1.5,North,24.2,-,N/A,,Haze,10,2013-03-23 20:55:00
3:15 PM,26.2,19.2,75,30.07,2.5,North,23.0,28.8,N/A,,Haze,360,2013-03-23 21:15:00
3:35 PM,26.6,18.9,73,30.07,7.0,North,25.3,-,N/A,,Overcast,360,2013-03-23 21:35:00
3:55 PM,26.6,18.9,73,30.08,7.0,North,23.0,26.5,N/A,,Overcast,10,2013-03-23 21:55:00
4:15 PM,27.1,18.5,70,30.09,10.0,North,21.9,25.3,N/A,,Overcast,10,2013-03-23 22:15:00
4:35 PM,27.0,19.4,73,30.09,10.0,North,25.3,-,N/A,,Overcast,360,2013-03-23 22:35:00
4:55 PM,27.0,19.4,73,30.09,10.0,North,23.0,-,N/A,,Overcast,350,2013-03-23 22:55:00
5:15 PM,26.6,18.5,71,30.09,10.0,North,23.0,28.8,N/A,,Overcast,350,2013-03-23 23:15:00
5:35 PM,26.4,18.0,70,30.10,10.0,North,24.2,29.9,N/A,,Overcast,350,2013-03-23 23:35:00
5:55 PM,26.4,17.6,69,30.10,10.0,North,21.9,-,N/A,,Mostly Cloudy,360,2013-03-23 23:55:00
6:15 PM,26.1,17.4,70,30.11,10.0,North,17.3,-,N/A,,Mostly Cloudy,360,2013-03-24 00:15:00
6:35 PM,26.2,17.1,68,30.11,10.0,North,18.4,-,N/A,,Scattered Clouds,10,2013-03-24 00:35:00
6:55 PM,25.7,17.1,70,30.12,10.0,North,15.0,-,N/A,,Clear,10,2013-03-24 00:55:00
7:15 PM,25.2,16.7,70,30.12,10.0,North,13.8,-,N/A,,Clear,10,2013-03-24 01:15:00
7:35 PM,24.8,16.7,71,30.12,10.0,North,13.8,-,N/A,,Clear,10,2013-03-24 01:35:00
7:55 PM,24.3,16.5,72,30.13,10.0,North,10.4,-,N/A,,Clear,360,2013-03-24 01:55:00
8:15 PM,23.4,15.8,73,30.14,10.0,North,10.4,-,N/A,,Clear,360,2013-03-24 02:15:00
8:35 PM,23.2,16.0,74,30.14,10.0,North,10.4,-,N/A,,Clear,360,2013-03-24 02:35:00
8:55 PM,23.4,15.8,73,30.15,10.0,North,11.5,-,N/A,,Clear,350,2013-03-24 02:55:00
9:15 PM,23.7,16.0,72,30.16,10.0,North,13.8,-,N/A,,Clear,350,2013-03-24 03:15:00
9:35 PM,23.4,15.8,73,30.16,10.0,North,13.8,-,N/A,,Clear,350,2013-03-24 03:35:00
9:55 PM,23.0,15.3,72,30.16,10.0,NNW,16.1,-,N/A,,Clear,340,2013-03-24 03:55:00
10:15 PM,22.8,15.3,73,30.17,10.0,NNW,13.8,-,N/A,,Clear,340,2013-03-24 04:15:00
10:35 PM,22.8,15.1,72,30.17,10.0,NNW,10.4,-,N/A,,Clear,340,2013-03-24 04:35:00
10:55 PM,22.6,15.3,73,30.17,10.0,NNW,12.7,-,N/A,,Clear,330,2013-03-24 04:55:00
11:15 PM,22.8,14.9,72,30.17,10.0,NW,11.5,-,N/A,,Clear,320,2013-03-24 05:15:00
11:35 PM,22.6,14.5,71,30.17,10.0,NNW,11.5,-,N/A,,Clear,330,2013-03-24 05:35:00
11:55 PM,22.1,14.0,71,30.17,10.0,NW,6.9,-,N/A,,Clear,310,2013-03-24 05:55:00